When you browse on this site, cookies collect data to enhance your experience and personalize the content and advertising you see.
Visit our Privacy Policy to learn more. By continuing to use the site, you agree to this use of cookies and data.

Hourly Weather Mihaylovskoe

Today, 13 July, Monday

Time Temperature Precipitation Wind Pressure Humidity
00:00 +19°C° 0 mm 1 mps 741 mmHg 86%
01:00 +19°C° 0 mm 1 mps 740 mmHg 88%
02:00 +18°C° 0 mm 1 mps 740 mmHg 89%
03:00 +18°C° 0 mm 1 mps 740 mmHg 90%
04:00 +18°C° 0 mm 1 mps 740 mmHg 91%
05:00 +18°C° 0 mm 1 mps 740 mmHg 92%
06:00 +18°C° 0 mm 2 mps 739 mmHg 92%
07:00 +19°C° 0 mm 2 mps 739 mmHg 89%
08:00 +20°C° 0 mm 2 mps 739 mmHg 86%
09:00 +21°C° 0 mm 3 mps 739 mmHg 82%
10:00 +23°C° 0.1 mm 2 mps 739 mmHg 79%
11:00 +24°C° 0.1 mm 2 mps 739 mmHg 76%
12:00 +25°C° 0.1 mm 2 mps 738 mmHg 72%
13:00 +25°C° 0.8 mm 2 mps 738 mmHg 74%
14:00 +24°C° 0.8 mm 2 mps 738 mmHg 76%
15:00 +24°C° 0.8 mm 2 mps 738 mmHg 78%
16:00 +24°C° 0.6 mm 2 mps 738 mmHg 79%
17:00 +23°C° 0.6 mm 2 mps 737 mmHg 80%
18:00 +22°C° 0.6 mm 1 mps 737 mmHg 81%
19:00 +20°C° 0.4 mm 2 mps 737 mmHg 84%
20:00 +19°C° 0.4 mm 2 mps 737 mmHg 87%
21:00 +18°C° 0.4 mm 2 mps 737 mmHg 89%
22:00 +18°C° 0 mm 2 mps 737 mmHg 91%
23:00 +17°C° 0 mm 3 mps 737 mmHg 93%

Tomorrow, 14 July, Tuesday

Time Temperature Precipitation Wind Pressure Humidity
00:00 +17°C° 0 mm 3 mps 737 mmHg 95%
01:00 +17°C° 0 mm 4 mps 737 mmHg 96%
02:00 +17°C° 0 mm 4 mps 737 mmHg 97%
03:00 +17°C° 0 mm 4 mps 737 mmHg 97%
04:00 +17°C° 0 mm 4 mps 737 mmHg 97%
05:00 +17°C° 0 mm 4 mps 736 mmHg 96%
06:00 +17°C° 0 mm 3 mps 736 mmHg 96%
07:00 +17°C° 0.2 mm 4 mps 736 mmHg 96%
08:00 +17°C° 0.2 mm 4 mps 736 mmHg 95%
09:00 +17°C° 0.2 mm 5 mps 736 mmHg 95%
10:00 +17°C° 0.6 mm 5 mps 736 mmHg 94%
11:00 +17°C° 0.6 mm 5 mps 736 mmHg 94%
12:00 +17°C° 0.6 mm 6 mps 735 mmHg 94%
13:00 +17°C° 0.4 mm 7 mps 735 mmHg 94%
14:00 +17°C° 0.4 mm 8 mps 734 mmHg 94%
15:00 +18°C° 0.4 mm 9 mps 734 mmHg 95%
16:00 +18°C° 4.6 mm 8 mps 733 mmHg 95%
17:00 +18°C° 4.6 mm 7 mps 733 mmHg 95%
18:00 +20°C° 4.6 mm 6 mps 732 mmHg 95%
19:00 +19°C° 0.6 mm 6 mps 732 mmHg 95%
20:00 +19°C° 0.6 mm 6 mps 731 mmHg 95%
21:00 +19°C° 0.6 mm 6 mps 731 mmHg 95%
22:00 +17°C° 0 mm 5 mps 731 mmHg 95%
23:00 +16°C° 0 mm 5 mps 730 mmHg 96%

Day after tomorrow, 15 July, Wednesday

Time Temperature Precipitation Wind Pressure Humidity
00:00 +17°C° 0 mm 4 mps 730 mmHg 96%
01:00 +15°C° 0 mm 4 mps 730 mmHg 97%
02:00 +15°C° 0 mm 4 mps 730 mmHg 97%
03:00 +15°C° 0 mm 4 mps 730 mmHg 97%
04:00 +15°C° 0 mm 4 mps 730 mmHg 97%
05:00 +17°C° 0 mm 4 mps 730 mmHg 97%
06:00 +17°C° 0 mm 4 mps 730 mmHg 96%
07:00 +16°C° 0.1 mm 5 mps 730 mmHg 95%
08:00 +16°C° 0.1 mm 5 mps 730 mmHg 95%
09:00 +16°C° 0.1 mm 6 mps 730 mmHg 94%
10:00 +17°C° 0.4 mm 5 mps 730 mmHg 93%
11:00 +17°C° 0.4 mm 5 mps 731 mmHg 92%
12:00 +18°C° 0.4 mm 4 mps 731 mmHg 91%
13:00 +18°C° 1.2 mm 4 mps 731 mmHg 89%
14:00 +19°C° 1.2 mm 4 mps 731 mmHg 87%
15:00 +19°C° 1.2 mm 4 mps 731 mmHg 86%
16:00 +18°C° 1 mm 4 mps 731 mmHg 88%
17:00 +17°C° 1 mm 4 mps 731 mmHg 90%
18:00 +14°C° 1 mm 4 mps 731 mmHg 92%
19:00 +14°C° 1.3 mm 4 mps 731 mmHg 94%
20:00 +13°C° 1.3 mm 4 mps 731 mmHg 95%
21:00 +12°C° 1.3 mm 4 mps 732 mmHg 96%
22:00 +12°C° 0.5 mm 4 mps 732 mmHg 96%
23:00 +12°C° 0.5 mm 3 mps 732 mmHg 97%

16 July, Thursday

Time Temperature Precipitation Wind Pressure Humidity
00:00 +13°C° 0.5 mm 3 mps 732 mmHg 98%
01:00 +13°C° 0.3 mm 4 mps 732 mmHg 97%
02:00 +14°C° 0.3 mm 5 mps 732 mmHg 97%
03:00 +14°C° 0.3 mm 5 mps 733 mmHg 96%
04:00 +14°C° 0.1 mm 6 mps 733 mmHg 96%
05:00 +14°C° 0.1 mm 6 mps 733 mmHg 95%
06:00 +14°C° 0.1 mm 6 mps 733 mmHg 95%
07:00 +14°C° 0.1 mm 6 mps 734 mmHg 95%
08:00 +14°C° 0.1 mm 6 mps 734 mmHg 94%
09:00 +14°C° 0.1 mm 6 mps 734 mmHg 94%
10:00 +14°C° 0.1 mm 6 mps 734 mmHg 94%
11:00 +14°C° 0.1 mm 6 mps 735 mmHg 93%
12:00 +14°C° 0.1 mm 6 mps 735 mmHg 93%
13:00 +14°C° 0.1 mm 6 mps 735 mmHg 93%
14:00 +14°C° 0.1 mm 5 mps 736 mmHg 92%
15:00 +14°C° 0.1 mm 5 mps 736 mmHg 92%
16:00 +14°C° 0.1 mm 5 mps 736 mmHg 92%
17:00 +14°C° 0.1 mm 5 mps 736 mmHg 93%
18:00 +14°C° 0.1 mm 5 mps 736 mmHg 93%
19:00 +14°C° 0.1 mm 5 mps 736 mmHg 94%
20:00 +14°C° 0.1 mm 5 mps 736 mmHg 94%
21:00 +13°C° 0.1 mm 4 mps 737 mmHg 95%
22:00 +13°C° 0 mm 4 mps 737 mmHg 95%
23:00 +13°C° 0 mm 4 mps 737 mmHg 96%

17 July, Friday

Time Temperature Precipitation Wind Pressure Humidity
00:00 +13°C° 0 mm 4 mps 737 mmHg 96%
01:00 +13°C° 0 mm 4 mps 737 mmHg 96%
02:00 +13°C° 0 mm 4 mps 737 mmHg 96%
03:00 +13°C° 0 mm 4 mps 737 mmHg 96%
04:00 +13°C° 0 mm 4 mps 737 mmHg 96%
05:00 +13°C° 0 mm 4 mps 737 mmHg 95%
06:00 +13°C° 0 mm 4 mps 737 mmHg 95%
07:00 +14°C° 0 mm 4 mps 737 mmHg 94%
08:00 +14°C° 0 mm 4 mps 737 mmHg 93%
09:00 +14°C° 0 mm 4 mps 738 mmHg 92%
10:00 +15°C° 0.1 mm 4 mps 738 mmHg 90%
11:00 +17°C° 0.1 mm 4 mps 738 mmHg 88%
12:00 +16°C° 0.1 mm 5 mps 738 mmHg 86%
13:00 +16°C° 0.2 mm 5 mps 738 mmHg 85%
14:00 +17°C° 0.2 mm 5 mps 738 mmHg 84%
15:00 +17°C° 0.2 mm 5 mps 738 mmHg 84%
16:00 +18°C° 0.2 mm 4 mps 739 mmHg 85%
17:00 +18°C° 0.2 mm 4 mps 739 mmHg 85%
18:00 +18°C° 0.2 mm 4 mps 739 mmHg 86%
19:00 +17°C° 0 mm 4 mps 739 mmHg 89%
20:00 +16°C° 0 mm 3 mps 739 mmHg 92%
21:00 +14°C° 0 mm 3 mps 739 mmHg 95%
22:00 +13°C° 0 mm 3 mps 739 mmHg 95%
23:00 +13°C° 0 mm 3 mps 739 mmHg 96%

18 July, Saturday

Time Temperature Precipitation Wind Pressure Humidity
00:00 +12°C° 0 mm 3 mps 739 mmHg 97%
01:00 +12°C° 0 mm 3 mps 740 mmHg 97%
02:00 +12°C° 0 mm 3 mps 740 mmHg 97%
03:00 +12°C° 0 mm 3 mps 740 mmHg 97%
04:00 +12°C° 0 mm 3 mps 740 mmHg 96%
05:00 +12°C° 0 mm 3 mps 740 mmHg 96%
06:00 +12°C° 0 mm 3 mps 740 mmHg 95%
07:00 +13°C° 0 mm 3 mps 740 mmHg 93%
08:00 +14°C° 0 mm 3 mps 741 mmHg 91%
09:00 +14°C° 0 mm 3 mps 741 mmHg 88%
10:00 +16°C° 0 mm 3 mps 741 mmHg 87%
11:00 +16°C° 0 mm 3 mps 741 mmHg 86%
12:00 +16°C° 0 mm 3 mps 741 mmHg 84%
13:00 +16°C° 0 mm 3 mps 741 mmHg 83%
14:00 +16°C° 0 mm 3 mps 741 mmHg 82%
15:00 +17°C° 0 mm 3 mps 741 mmHg 81%
16:00 +16°C° 0 mm 3 mps 741 mmHg 83%
17:00 +16°C° 0 mm 3 mps 741 mmHg 84%
18:00 +16°C° 0 mm 3 mps 741 mmHg 86%
19:00 +14°C° 0 mm 3 mps 742 mmHg 88%
20:00 +14°C° 0 mm 2 mps 742 mmHg 90%
21:00 +13°C° 0 mm 2 mps 742 mmHg 92%
22:00 +13°C° 0 mm 2 mps 742 mmHg 92%
23:00 +13°C° 0 mm 2 mps 742 mmHg 93%
Show more